RH
71 70 73 71 57 70 86 92 94 92 86 88 79 72 73 69 69 71 77 82 87 82 79 89 96 96 95
79 83 79 81 75 82 98 95 84 79 86 79 74 72 70 77 78 83 87 76 76 80 83 72 77 98 99
95 79 94 92 97 96 81 85 80 81 77 74 72 79 85 90 85 78 79 86 89 82 82 92 98 99 96
95 95 97 94 88 76 73 80 93 89 86 87 91 93 82 84 88 89 91 92 90 83 84 96 96 94 86
97 98 93 84 82 85 94 97 94 99 96 96 92 91 88 90 92 95 100 97 98 99 97 92 97 96 95
98 99 88 92 94 99 98 97 94 92 93 97 100 99 90 87 97 100 97 91 94 98 98 97 94 95 91
94 97 100 93 97 97 100 100 98 96 100 100 98 100 92 87 97 96 96 100 100 100 100 97 98 94 92
94 96 97 97 95 98 97 99 100 99 97 100 97 99 76 88 87 98 100 99 96 100 100 99 100 100 100
100 99 91 93 96 96 95 100 97 97 80 100 92 94 100 83 65 78 94 100 99 100 100 100 100 100 100
83 69 68 83 100 99 96 98 100 98 68 98 98 97 97 88 80 86 85 90 100 100 100 100 100 100 100
76 88 96 97 93 95 96 97 97 97 82 99 98 97 100 98 93 88 85 91 96 97 97 98 98 98 100
100 100 100 95 94 95 96 96 97 98 96 96 96 98 98 98 94 74 89 96 97 96 98 98 98 90 75
100 100 98 95 93 93 92 94 87 92 95 97 96 96 99 98 96 92 97 91 97 98 98 99 100 100 100
98 94 94 94 95 97 96 94 94 86 90 97 98 98 97 88 95 94 97 97 99 99 100 100 100 100 98
96 95 95 96 96 95 96 95 98 96 91 92 96 97 89 85 92 97 96 98 98 99 98 99 99 100 100
96 97 97 97 96 95 95 96 97 95 96 96 95 91 90 95 97 96 98 98 98 98 98 99 98 99 100
97 97 97 97 100 96 96 96 95 96 96 93 96 96 94 96 98 98 98 98 98 98 98 98 98 99 99
Wind_Speed
48 48 49 52 53 50 43 38 39 38 35 34 39 42 44 49 48 46 44 45 44 43 44 43 41 42 41
50 49 49 49 48 48 43 40 39 40 39 41 45 48 47 42 43 42 41 42 42 42 42 42 42 42 40
45 50 45 43 43 39 49 44 42 40 41 42 42 40 38 37 40 42 41 41 40 41 41 41 40 35 36
43 40 43 37 41 47 52 42 41 42 43 42 36 33 40 39 38 38 38 38 37 37 40 38 36 34 35
40 35 45 47 45 44 45 43 50 41 39 37 37 44 47 40 37 35 33 33 34 37 37 38 35 33 34
40 40 47 43 44 44 43 42 44 39 36 49 41 45 43 42 37 34 36 42 38 37 37 34 35 35 37
42 43 42 46 47 42 44 43 44 46 43 46 41 41 43 44 35 37 39 39 39 39 38 39 38 37 39
36 40 42 41 44 43 43 48 45 41 37 44 42 44 45 43 37 36 36 35 35 34 35 35 37 36 36
34 35 40 37 35 38 41 40 41 40 43 40 43 45 44 43 35 25 26 30 32 33 33 34 34 35 37
44 42 37 36 32 33 36 38 39 41 40 36 40 41 30 34 23 37 36 36 33 34 35 35 34 35 38
38 40 38 38 37 33 31 34 39 41 36 35 37 38 30 35 37 39 37 38 33 27 25 26 31 37 42
39 38 39 40 35 32 30 29 30 34 26 24 27 29 31 31 35 37 34 28 22 26 19 14 24 37 43
38 39 38 35 35 33 30 29 30 27 27 27 29 30 25 25 28 34 36 34 24 20 12 9 4 14 26
37 37 36 37 35 32 32 32 33 35 30 30 26 20 20 13 19 29 26 21 23 16 22 15 9 9 13
36 37 37 36 35 31 31 31 31 34 32 30 23 15 10 8 21 23 20 16 16 21 32 35 30 17 14
36 36 36 35 35 34 30 31 30 28 27 25 26 19 13 10 20 22 15 22 23 27 32 37 40 38 30
37 35 34 35 34 33 30 28 28 26 23 21 21 22 18 17 24 18 19 27 31 36 39 41 39 39 38
Wind_Direction
304 308 309 310 314 312 310 303 296 295 295 293 293 291 290 290 285 283 280 278 278 277 277 277 275 270 265
300 306 305 305 313 308 306 305 304 300 294 293 292 292 290 286 284 282 281 278 276 274 271 269 270 271 267
300 301 299 310 308 301 309 305 300 296 294 296 294 289 288 287 287 284 280 278 277 273 271 268 268 268 270
300 304 305 310 308 308 304 302 298 300 297 298 296 290 289 290 287 282 279 276 274 271 267 269 269 266 264
303 307 311 311 308 306 299 304 304 302 301 301 299 295 298 298 293 287 283 281 276 276 267 264 265 267 263
310 309 306 305 305 302 301 306 304 308 303 299 299 296 299 299 294 284 282 283 278 274 275 269 266 264 259
305 303 301 303 310 309 308 303 300 302 304 297 298 294 296 297 289 286 284 280 277 274 273 267 264 263 257
306 303 305 308 306 304 303 302 302 301 300 291 297 294 305 301 296 291 287 285 281 273 267 263 257 254 255
308 306 306 306 304 306 306 306 302 302 307 293 297 297 298 305 309 305 288 287 285 280 275 271 266 258 254
313 313 317 322 315 310 310 304 301 302 319 301 302 306 303 301 301 305 305 303 292 283 276 267 258 251 250
322 326 323 320 324 326 324 318 305 300 327 311 304 307 298 300 306 311 314 311 305 300 287 267 249 239 242
325 321 321 326 331 334 336 336 334 325 323 331 317 316 306 305 305 321 330 326 321 326 321 293 247 237 230
321 322 328 333 335 337 339 343 342 343 334 324 326 314 304 289 305 325 330 334 341 349 17 38 184 214 213
326 333 337 338 337 340 338 341 339 337 342 344 336 320 308 299 319 329 337 332 353 35 58 77 115 165 184
337 339 340 341 342 345 345 342 333 335 347 355 2 342 337 316 341 351 349 16 39 64 69 74 78 100 181
344 344 342 345 346 348 350 346 337 346 353 356 6 22 35 37 24 1 37 52 64 74 72 74 75 72 86
345 345 349 350 350 352 352 352 350 353 359 1 9 15 29 15 37 30 66 75 72 76 74 72 73 80 80